Location: Newark
(52.4787°S, 179.0532°W)
Time: 04:36:46
(UTC+00:00)

Transit 2A Rocket - Pass Details

Date: 22 November 2019
Orbit: 594 x 909 km, 66.7° (Epoch: 08 December)

Event Time Altitude Azimuth Distance (km) Brightness Sun altitude
Rises 03:11:28 0° 225° (SW) 3,560 8.7 38.4°
Reaches altitude 10° 03:14:17 10° 215° (SW) 2,627 8.1 38.0°
Maximum altitude 03:19:48 33° 152° (SSE) 1,506 6.5 37.2°
Drops below altitude 10° 03:25:12 10° 88° (E) 2,569 7.3 36.4°
Sets 03:27:55 0° 78° (ENE) 3,471 7.9 36.0°
